TimeCST,TemperatureF,Dew PointF,Humidity,Sea Level PressureIn,VisibilityMPH,Wind Direction,Wind SpeedMPH,Gust SpeedMPH,PrecipitationIn,Events,Conditions,WindDirDegrees,DateUTC
12:54 AM,23.0,14.0,68,29.94,10.0,North,10.4,-,N/A,,Overcast,350,2013-12-22 06:54:00
1:54 AM,21.9,12.9,68,29.97,10.0,North,10.4,-,N/A,,Mostly Cloudy,10,2013-12-22 07:54:00
2:54 AM,19.0,10.9,71,30.02,10.0,North,12.7,-,N/A,,Partly Cloudy,10,2013-12-22 08:54:00
3:54 AM,17.1,10.0,74,30.05,10.0,North,10.4,-,N/A,,Clear,350,2013-12-22 09:54:00
4:54 AM,16.0,10.0,77,30.08,10.0,NNW,11.5,-,N/A,,Clear,340,2013-12-22 10:54:00
5:54 AM,15.1,10.0,80,30.11,10.0,NNW,11.5,-,N/A,,Clear,340,2013-12-22 11:54:00
6:54 AM,12.0,8.1,84,30.16,10.0,NW,9.2,-,N/A,,Clear,320,2013-12-22 12:54:00
7:54 AM,10.0,6.1,84,30.20,10.0,WNW,6.9,-,N/A,,Clear,300,2013-12-22 13:54:00
8:54 AM,12.9,8.1,81,30.21,10.0,NW,6.9,-,N/A,,Clear,310,2013-12-22 14:54:00
9:54 AM,19.9,12.9,74,30.22,10.0,WNW,10.4,-,N/A,,Clear,300,2013-12-22 15:54:00
10:54 AM,25.0,17.1,72,30.24,10.0,NNW,6.9,-,N/A,,Clear,330,2013-12-22 16:54:00
11:54 AM,30.9,19.9,64,30.22,10.0,NNW,12.7,-,N/A,,Clear,340,2013-12-22 17:54:00
12:54 PM,35.1,19.9,54,30.19,10.0,NW,15.0,-,N/A,,Clear,320,2013-12-22 18:54:00
1:54 PM,37.0,18.0,46,30.17,10.0,NW,11.5,-,N/A,,Clear,320,2013-12-22 19:54:00
2:54 PM,39.0,15.1,38,30.17,10.0,NW,9.2,-,N/A,,Clear,320,2013-12-22 20:54:00
3:54 PM,39.9,12.9,33,30.17,10.0,NW,6.9,-,N/A,,Clear,310,2013-12-22 21:54:00
4:54 PM,39.0,12.0,33,30.19,10.0,Calm,Calm,-,N/A,,Clear,0,2013-12-22 22:54:00
5:54 PM,32.0,12.0,44,30.22,10.0,ESE,3.5,-,N/A,,Clear,110,2013-12-22 23:54:00
6:54 PM,27.0,12.0,53,30.26,10.0,SE,6.9,-,N/A,,Clear,140,2013-12-23 00:54:00
7:54 PM,24.1,19.0,81,30.27,10.0,South,8.1,-,N/A,,Clear,190,2013-12-23 01:54:00
8:54 PM,23.0,18.0,81,30.27,10.0,South,10.4,-,N/A,,Clear,180,2013-12-23 02:54:00
9:54 PM,19.9,17.1,89,30.27,9.0,SSE,10.4,-,N/A,,Clear,150,2013-12-23 03:54:00
10:54 PM,18.0,15.1,88,30.27,8.0,South,8.1,-,N/A,,Clear,170,2013-12-23 04:54:00
11:54 PM,19.0,16.0,88,30.25,9.0,South,9.2,-,N/A,,Partly Cloudy,180,2013-12-23 05:54:00